This demonstration page uses our WeatherBlox Daily Observations layout. Learn more.

Left ArrowRight Arrow

Hourly Observations for February 14, 2016

Temp ( °F °C ) Dew Point ( °F °C ) Humidity (%) Winds ( mph kmh ) Pressure ( in mb ) Visibility ( mi km ) Precip ( " mm )
12:59 am 00:59 Mostly Clear 20 -6.7 -2 -18.9 38 38 NNW 23 37 30.47 1032 10 16 0.00 0.00
1:59 am 01:59 Mostly Clear 19 -7.2 -2 -18.9 39 39 NNW 18 30 30.47 1032 10 16 0.00 0.00
2:59 am 02:59 Mostly Clear 19 -7.2 -3 -19.4 37 37 NNW 21 33 30.48 1032 10 16 0.00 0.00
3:59 am 03:59 Mostly Clear 18 -7.8 -3 -19.4 39 39 NNW 25 41 30.49 1032 10 16 0.00 0.00
4:59 am 04:59 Mostly Clear 18 -7.8 -2 -18.9 41 41 N 16 26 30.52 1034 10 16 0.00 0.00
5:59 am 05:59 Partly Cloudy 17 -8.3 -3 -19.4 41 41 NNW 20 31 30.54 1034 10 16 0.00 0.00
6:59 am 06:59 Partly Cloudy 17 -8.3 -1 -18.3 45 45 N 15 24 30.56 1035 10 16 0.00 0.00
7:59 am 07:59 Partly Cloudy 18 -7.8 0 -17.8 45 45 NNW 16 26 30.58 1036 10 16 0.00 0.00
8:59 am 08:59 Partly Cloudy 20 -6.7 1 -17.2 43 43 NNW 14 22 30.59 1036 10 16 0.00 0.00
9:59 am 09:59 Partly Cloudy 22 -5.6 -1 -18.3 36 36 NNW 14 22 30.59 1036 10 16 0.00 0.00
10:59 am 10:59 Partly Cloudy 24 -4.4 1 -17.2 36 36 N 14 22 30.59 1036 10 16 0.00 0.00
11:59 am 11:59 Mostly Cloudy 25 -3.9 0 -17.8 33 33 N 8 13 30.58 1036 10 16 0.00 0.00
12:59 pm 12:59 Mostly Cloudy 26 -3.3 1 -17.2 34 34 NNE 13 20 30.56 1035 10 16 0.00 0.00
1:59 pm 13:59 Mostly Cloudy 26 -3.3 2 -16.7 35 35 Calm 30.55 1034 10 16 0.00 0.00
2:59 pm 14:59 Partly Cloudy 26 -3.3 4 -15.6 38 38 NNE 7 11 30.50 1033 10 16 0.00 0.00
3:59 pm 15:59 Partly Cloudy 26 -3.3 5 -15 40 40 VRB 6 9 30.53 1034 10 16 0.00 0.00
4:59 pm 16:59 Mostly Cloudy 24 -4.4 5 -15 44 44 E 5 7 30.54 1034 10 16 0.00 0.00
5:59 pm 17:59 Mostly Cloudy 22 -5.6 6 -14.4 50 50 ESE 6 9 30.54 1034 10 16 0.00 0.00
6:59 pm 18:59 Mostly Cloudy 23 -5 7 -13.9 50 50 ESE 5 7 30.55 1034 10 16 0.00 0.00
7:59 pm 19:59 Cloudy 24 -4.4 6 -14.4 46 46 SE 5 7 30.57 1035 10 16 0.00 0.00
8:59 pm 20:59 Cloudy 24 -4.4 7 -13.9 48 48 SSE 5 7 30.57 1035 10 16 0.00 0.00
9:59 pm 21:59 Cloudy 25 -3.9 7 -13.9 46 46 SSE 6 9 30.56 1035 10 16 0.00 0.00
10:59 pm 22:59 Cloudy with Light Snow 25 -3.9 8 -13.3 48 48 VRB 6 9 30.56 1035 10 16 0.00 0.03
11:59 pm 23:59 Cloudy with Light Snow 24 -4.4 13 -10.6 62 62 ESE 12 19 30.52 1033 4 6 0.00 0.03

Powered by AerisWeather